Stations météo

Publicité
Rostherne No 2, Grande-Bretagne (3351): Température de l'air & dewpoint: 20.06.2019 18:00:00 - 26.06.2019 18:00:00 (BST)Rostherne No 2, Grande-Bretagne (3351): Vitesse du vent: 20.06.2019 18:00:00 - 26.06.2019 18:00:00 (BST)Rostherne No 2, Grande-Bretagne (3351): Direction du vent: 20.06.2019 18:00:00 - 26.06.2019 18:00:00 (BST)Rostherne No 2, Grande-Bretagne (3351): reduced air pressure: 20.06.2019 18:00:00 - 26.06.2019 18:00:00 (BST)Rostherne No 2, Grande-Bretagne (3351): visibility: 20.06.2019 18:00:00 - 26.06.2019 18:00:00 (BST)Rostherne No 2, Grande-Bretagne (3351): Ensoleillement: 20.06.2019 18:00:00 - 26.06.2019 18:00:00 (BST)Rostherne No 2, Grande-Bretagne (3351): Quantités de précipitations: 20.06.2019 18:00:00 - 26.06.2019 18:00:00 (BST)
Date & Time tt [°C] td [°C] ff [km/h] ff [knt] dd ppp [hPa] vv [km] sd [min] rr [mm]
26.06.2019 18:00:00 17,1 12,3 13 7 E 1030,7 30 0 0,0
26.06.2019 17:00:00 17,8 12,8 15 8 E 1030,5 20 0 0,0
26.06.2019 16:00:00 18,2 13,5 13 7 E 1030,3 28 0 0,0
26.06.2019 15:00:00 17,8 12,6 13 7 E 1030,4 45 0 0,0
26.06.2019 14:00:00 19,0 13,3 9 5 ENE 1030,3 35 6 0,0
26.06.2019 13:00:00 17,7 12,6 9 5 E 1030,7 35 0 0,0
26.06.2019 12:00:00 17,4 13,0 9 5 ENE 1030,7 45 0 0,0
26.06.2019 11:00:00 16,6 12,6 11 6 ENE 1030,3 45 0 0,0
26.06.2019 10:00:00 14,8 12,0 9 5 ENE 1030,3 50 0 0,0
26.06.2019 09:00:00 13,8 11,7 11 6 ENE 1029,8 40 0 0,0
26.06.2019 08:00:00 13,0 11,1 13 7 E 1029,4 30 0 0,0
26.06.2019 07:00:00 13,2 11,5 5 3 NE 1028,7 50 0 0,0
26.06.2019 06:00:00 12,9 11,6 5 3 NNE 1027,9 50 0 0,0
26.06.2019 05:00:00 12,8 11,7 5 3 NNE 1027,6 50 0 0,0
26.06.2019 04:00:00 12,7 12,0 5 3 NE 1027,2 50 0 0,0
26.06.2019 03:00:00 12,7 11,9 4 2 NNE 1027,0 5 0 0,8
26.06.2019 02:00:00 13,8 11,1 8 4 NE 1026,7 12 0 0,0
26.06.2019 01:00:00 14,0 11,3 11 6 NE 1026,4 50 - 0,0
26.06.2019 00:00:00 14,2 11,6 11 6 NE 1026,1 50 0 0,0
25.06.2019 23:00:00 14,3 12,3 9 5 NE 1025,8 35 0 0,0
25.06.2019 22:00:00 14,7 12,3 9 5 NE 1025,2 35 0 0,0
25.06.2019 21:00:00 15,5 13,0 8 4 NE 1024,5 45 0 0,0
25.06.2019 20:00:00 16,1 13,1 13 7 ENE 1023,9 50 0 0,0
25.06.2019 19:00:00 16,6 13,4 13 7 E 1023,3 50 0 0,0
25.06.2019 18:00:00 16,6 13,1 11 6 ENE 1022,9 50 6 0,0
25.06.2019 17:00:00 17,2 13,9 16 9 ENE 1022,3 30 0 0,0
25.06.2019 16:00:00 17,5 14,5 13 7 NE 1022,1 35 0 0,0
25.06.2019 15:00:00 16,4 14,5 11 6 ENE 1021,8 22 0 0,2
25.06.2019 14:00:00 16,1 14,9 5 3 NE 1021,4 19 0 0,8
25.06.2019 13:00:00 14,9 13,9 11 6 NE 1020,7 11 0 1,2
25.06.2019 12:00:00 15,3 14,3 9 5 NE 1021,0 8 0 2,0
25.06.2019 11:00:00 15,6 14,4 8 4 NE 1020,5 12 0 1,2
25.06.2019 10:00:00 16,5 14,4 11 6 ENE 1020,2 29 0 0,0
25.06.2019 09:00:00 16,4 15,2 9 5 NE 1019,5 9 0 0,0
25.06.2019 08:00:00 16,2 16,0 5 3 N 1018,9 2,3 0 0,2
25.06.2019 07:00:00 15,6 15,3 9 5 NW 1018,7 2,8 0 0,2
25.06.2019 06:00:00 15,3 15,1 8 4 NW 1019,0 2,3 0 0,0
25.06.2019 05:00:00 15,0 14,8 8 4 NNW 1018,6 2,1 0 0,0
25.06.2019 04:00:00 14,7 14,4 8 4 NW 1018,5 2,4 0 0,0
25.06.2019 03:00:00 14,7 14,1 4 2 NNW 1018,6 2,8 0 0,0
25.06.2019 02:00:00 15,3 14,5 8 4 NNW 1018,8 3,7 0 0,0
25.06.2019 01:00:00 15,6 14,9 5 3 NNW 1019,5 4,5 - 0,0
25.06.2019 00:00:00 15,8 14,9 5 3 NNW 1019,2 6 0 0,0
24.06.2019 23:00:00 16,0 14,7 5 3 W 1019,1 7 0 0,0
24.06.2019 22:00:00 17,6 15,3 8 4 NNW 1018,4 10 0 0,0
24.06.2019 21:00:00 18,8 15,7 15 8 WNW 1018,0 13 0 0,0
24.06.2019 20:00:00 19,8 16,2 13 7 NW 1017,1 13 0 0,0
24.06.2019 19:00:00 21,3 17,1 9 5 NNW 1016,5 9 0 0,0
24.06.2019 18:00:00 22,1 17,2 4 2 E 1016,5 11 0 0,0
24.06.2019 17:00:00 21,7 17,5 5 3 SW 1016,3 8 6 0,0
24.06.2019 16:00:00 21,0 17,0 8 4 SSW 1016,2 7 6 0,0
24.06.2019 15:00:00 20,6 16,8 5 3 W 1016,0 8 0 0,0
24.06.2019 14:00:00 20,5 16,5 5 3 SW 1016,1 9 0 0,0
24.06.2019 13:00:00 19,5 16,3 5 3 SW 1016,0 13 0 0,0
24.06.2019 12:00:00 19,5 16,1 4 2 SSE 1015,7 12 0 0,0
24.06.2019 11:00:00 18,6 15,3 4 2 SW 1015,7 9 0 0,0
24.06.2019 10:00:00 18,3 14,8 2 1 E 1015,4 12 0 0,0
24.06.2019 09:00:00 17,7 15,1 4 2 E 1015,3 12 0 0,0
24.06.2019 08:00:00 16,3 15,0 2 1 SE 1015,2 16 0 0,0
24.06.2019 07:00:00 15,0 14,6 2 1 WNW 1015,2 6 0 0,0
24.06.2019 06:00:00 14,2 13,4 2 1 N 1014,9 5 0 0,0
24.06.2019 05:00:00 14,9 13,5 5 3 NE 1014,7 17 0 0,0
24.06.2019 04:00:00 14,5 13,4 4 2 NNE 1014,9 14 0 0,0
24.06.2019 03:00:00 14,7 13,2 5 3 N 1015,1 18 0 0,0
24.06.2019 02:00:00 15,3 13,2 9 5 NE 1015,6 21 0 0,0
24.06.2019 01:00:00 15,0 13,5 9 5 ENE 1015,9 13 - 0,2
24.06.2019 00:00:00 15,1 13,4 9 5 E 1016,2 6 0 0,2
23.06.2019 23:00:00 15,1 13,2 11 6 E 1016,7 16 0 0,0
23.06.2019 22:00:00 15,1 13,5 9 5 NE 1016,6 14 0 0,0
23.06.2019 21:00:00 15,6 14,5 9 5 NE 1016,7 10 0 1,4
23.06.2019 20:00:00 16,0 14,3 15 8 ENE 1017,1 9 0 1,0
23.06.2019 19:00:00 17,2 14,1 18 10 E 1016,4 15 0 0,0
23.06.2019 18:00:00 18,7 13,4 21 11 E 1017,0 17 0 0,0
23.06.2019 17:00:00 19,7 13,5 16 9 E 1017,4 22 0 0,0
23.06.2019 16:00:00 19,9 13,0 13 7 ESE 1017,8 35 0 0,0
23.06.2019 15:00:00 19,3 12,9 16 9 ESE 1017,9 23 0 0,0
23.06.2019 14:00:00 20,4 13,3 21 11 E 1017,8 21 6 0,0
23.06.2019 13:00:00 20,3 13,8 18 10 E 1018,3 29 0 0,0
23.06.2019 12:00:00 19,2 12,9 16 9 ESE 1018,8 40 24 0,0
23.06.2019 11:00:00 17,3 11,7 15 8 ESE 1019,2 30 6 0,0
23.06.2019 10:00:00 16,5 10,9 15 8 ESE 1019,5 45 0 0,0
23.06.2019 09:00:00 16,0 9,6 13 7 E 1019,7 35 6 0,0
23.06.2019 08:00:00 15,1 8,5 9 5 E 1019,9 45 6 0,0
23.06.2019 07:00:00 13,9 8,5 9 5 ESE 1019,6 45 0 0,0
23.06.2019 06:00:00 12,8 8,2 8 4 ESE 1019,3 50 0 0,0
23.06.2019 05:00:00 13,3 8,0 9 5 ESE 1019,4 45 0 0,0
23.06.2019 04:00:00 12,6 8,4 9 5 SE 1019,8 45 0 0,0
23.06.2019 03:00:00 13,6 8,1 9 5 SE 1019,8 45 0 0,0
23.06.2019 02:00:00 14,5 8,5 18 10 SSE 1019,6 40 0 0,0
23.06.2019 01:00:00 15,3 9,1 21 11 SSE 1019,6 45 - 0,0
23.06.2019 00:00:00 15,2 10,2 15 8 SSE 1019,5 45 0 0,0
22.06.2019 23:00:00 13,5 9,7 9 5 SSE 1019,3 50 0 0,0
22.06.2019 22:00:00 13,7 9,2 8 4 SE 1019,1 50 0 0,0
22.06.2019 21:00:00 16,5 9,5 8 4 SSE 1018,7 50 36 0,0
22.06.2019 20:00:00 19,8 9,4 13 7 SSE 1018,3 35 60 0,0
22.06.2019 19:00:00 20,3 9,1 16 9 SSE 1018,3 50 54 0,0
22.06.2019 18:00:00 21,5 9,4 11 6 S 1018,4 29 36 0,0
22.06.2019 17:00:00 21,8 10,3 15 8 SSE 1018,9 35 54 0,0
22.06.2019 16:00:00 21,9 9,8 9 5 S 1019,2 21 42 0,0
22.06.2019 15:00:00 21,5 11,4 13 7 S 1019,8 27 30 0,0
22.06.2019 14:00:00 20,2 10,3 9 5 SSE 1020,3 35 18 0,0
22.06.2019 13:00:00 20,3 9,2 9 5 S 1020,6 40 48 0,0
22.06.2019 12:00:00 19,3 9,7 9 5 S 1020,9 24 42 0,0
22.06.2019 11:00:00 18,8 10,8 9 5 SSW 1021,1 40 54 0,0
22.06.2019 10:00:00 18,0 10,2 13 7 SSE 1021,4 30 60 0,0
22.06.2019 09:00:00 16,5 9,6 8 4 SSE 1021,7 35 60 0,0
22.06.2019 08:00:00 13,6 9,5 2 1 NW 1021,9 35 54 0,0
22.06.2019 07:00:00 9,9 9,8 2 1 NW 1021,7 35 60 0,0
22.06.2019 06:00:00 6,9 6,8 2 1 S 1022,0 24 18 0,0
22.06.2019 05:00:00 5,2 5,0 2 1 S 1022,1 17 0 0,0
22.06.2019 04:00:00 4,8 4,6 4 2 ESE 1022,4 17 0 0,0
22.06.2019 03:00:00 4,7 4,4 2 1 SSE 1022,5 30 0 0,0
22.06.2019 02:00:00 5,3 4,9 5 3 SE 1022,7 30 0 0,0
22.06.2019 01:00:00 5,8 5,2 2 1 ENE 1022,6 40 - 0,0
22.06.2019 00:00:00 6,9 5,7 2 1 SW 1022,4 50 0 0,0
21.06.2019 23:00:00 8,1 6,1 0 0 N 1022,2 50 0 0,0
21.06.2019 22:00:00 10,5 6,1 2 1 WNW 1021,9 50 12 0,0
21.06.2019 21:00:00 15,0 6,4 5 3 NW 1021,6 50 60 0,0
21.06.2019 20:00:00 16,2 5,4 9 5 NW 1021,3 45 60 0,0
21.06.2019 19:00:00 16,6 5,9 13 7 NW 1021,1 45 60 0,0
21.06.2019 18:00:00 17,0 6,2 15 8 NNW 1020,9 45 60 0,0
21.06.2019 17:00:00 17,1 5,8 15 8 NNW 1020,6 40 60 0,0
21.06.2019 16:00:00 17,4 7,5 15 8 NW 1020,4 40 60 0,0
21.06.2019 15:00:00 17,0 7,0 16 9 NW 1020,1 40 60 0,0
21.06.2019 14:00:00 17,7 8,9 21 11 WNW 1019,7 30 60 0,0
21.06.2019 13:00:00 16,8 8,0 21 11 WNW 1019,4 30 54 0,0
21.06.2019 12:00:00 16,6 8,8 18 10 WNW 1018,9 30 48 0,0
21.06.2019 11:00:00 13,6 7,8 16 9 W 1018,6 35 24 0,0
21.06.2019 10:00:00 14,9 10,0 16 9 W 1018,3 29 18 0,0
21.06.2019 09:00:00 12,6 9,4 15 8 W 1017,8 40 18 0,0
21.06.2019 08:00:00 13,1 10,2 9 5 SW 1017,1 35 60 0,0
21.06.2019 07:00:00 10,7 8,9 5 3 S 1016,6 20 36 0,0
21.06.2019 06:00:00 9,3 8,0 9 5 S 1016,1 22 0 0,0
21.06.2019 05:00:00 9,2 8,7 8 4 S 1015,8 30 0 0,0
21.06.2019 04:00:00 8,0 7,1 5 3 SE 1015,5 26 0 0,0
21.06.2019 03:00:00 8,6 7,2 8 4 SSE 1015,2 24 0 0,0
21.06.2019 02:00:00 10,1 7,7 8 4 S 1014,8 35 0 0,0
21.06.2019 01:00:00 9,3 7,7 5 3 S 1014,7 40 - 0,0
21.06.2019 00:00:00 7,3 6,7 8 4 SE 1014,5 30 0 0,0
20.06.2019 23:00:00 7,5 6,3 4 2 SSE 1014,2 30 0 0,0
20.06.2019 22:00:00 10,0 7,4 0 0 N 1013,9 50 0 0,0
20.06.2019 21:00:00 12,1 8,0 8 4 WNW 1013,3 50 0 0,0
20.06.2019 20:00:00 13,9 7,6 15 8 WNW 1013,0 27 0 0,0
20.06.2019 19:00:00 15,1 7,2 15 8 WNW 1012,5 45 12 0,0
20.06.2019 18:00:00 16,2 7,8 18 10 WNW 1012,3 29 30 0,2

tt = Température de l'air
td = dewpoint
ff = Vitesse du vent
dd = Direction du vent
ppp = reduced air pressure
vv = visibility
sd = Ensoleillement
rr = Quantités de précipitations

stations d'obs. à proximité